Baton Rouge, LA

2:17 PM CST on January 21, 2017 (GMT -0600)
Baton Rouge Metropolitan Airport

Weather History for KBTR - May, 2013

Change the Weather History Date:

Monday, May 13, 2013

  Actual Average Record
Temperature  
Mean Temperature 66 °F 75 °F  
Max Temperature 81 °F 86 °F 101 °F (1922)
Min Temperature 50 °F 65 °F 46 °F (1960)
Degree Days  
Heating Degree Days 0 0  
Month to date heating degree days 30 0  
Since 1 July heating degree days 1551 1553  
Cooling Degree Days 1 10  
Month to date cooling degree days 42 113  
Year to date cooling degree days 199 344  
Growing Degree Days 15 (Base 50)    
Moisture  
Dew Point 48 °F    
Average Humidity 59    
Maximum Humidity 89    
Minimum Humidity 28    
Precipitation  
Precipitation 0.00 in 0.16 in 1.50 in (1929)
Month to date precipitation 3.83 2.00  
Year to date precipitation 34.98 21.63  
Snow  
Snow 0.00 in - - ()
Month to date snowfall 0.0  
Since 1 July snowfall 0.0  
Snow Depth 0.00 in    
Sea Level Pressure  
Sea Level Pressure 30.23 in    
Wind  
Wind Speed 4 mph (ENE)    
Max Wind Speed 13 mph    
Max Gust Speed 17 mph    
Visibility 10 miles    
Events      
T = Trace of Precipitation, MM = Missing Value Source: NWS Daily Summary

Daily Weather History Graph

Daily Weather History Graph

Search for Another Location

Airport or City:

Trip Planner

Search our weather history database for the weather conditions in past years. The results will help you decide how hot, cold, wet, or windy it might be!

Date:

Astronomy

May. 13, 2013 Rise Set
Actual Time 6:11 AM CDT 7:50 PM CDT
Civil Twilight 5:45 AM CDT 8:17 PM CDT
Nautical Twilight 5:13 AM CDT 8:48 PM CDT
Astronomical Twilight 4:40 AM CDT 9:22 PM CDT
Moon 8:58 AM CDT (5/13) 11:00 PM CDT (5/13)
Length of Visible Light 14h 32m
Length of Day
13h 39m
Waxing Crescent, 12% of the Moon is Illuminated
May 13
Waxing Crescent
May 17
First Quarter
May 24
Full
May 31
Last Quarter
Jun 8
New

Hourly Weather History & Observations

Time (CDT) Temp. Dew Point Humidity Pressure Visibility Wind Dir Wind Speed Gust Speed Precip Events Conditions
12:53 AM 55.0 °F 50.0 °F 83% 30.18 in 10.0 mi Calm Calm - N/A   Clear
1:53 AM 55.0 °F 48.0 °F 77% 30.19 in 10.0 mi Calm Calm - N/A   Clear
2:53 AM 52.0 °F 48.0 °F 86% 30.18 in 10.0 mi Calm Calm - N/A   Clear
3:53 AM 51.1 °F 46.9 °F 86% 30.19 in 10.0 mi NNE 3.5 mph - N/A   Clear
4:53 AM 51.1 °F 46.0 °F 83% 30.19 in 10.0 mi NE 3.5 mph - N/A   Clear
5:53 AM 50.0 °F 46.0 °F 86% 30.22 in 10.0 mi NNE 3.5 mph - N/A   Clear
6:53 AM 51.1 °F 46.0 °F 83% 30.25 in 10.0 mi NE 3.5 mph - N/A   Clear
7:53 AM 55.9 °F 46.9 °F 72% 30.27 in 10.0 mi ENE 8.1 mph - N/A   Clear
8:53 AM 63.0 °F 46.0 °F 54% 30.29 in 10.0 mi East 9.2 mph - N/A   Clear
9:53 AM 66.9 °F 44.1 °F 44% 30.30 in 10.0 mi ENE 6.9 mph - N/A   Clear
10:53 AM 71.1 °F 44.1 °F 38% 30.30 in 10.0 mi ESE 10.4 mph - N/A   Clear
11:53 AM 73.0 °F 44.1 °F 35% 30.30 in 10.0 mi ESE 12.7 mph - N/A   Clear
12:53 PM 75.0 °F 45.0 °F 34% 30.28 in 10.0 mi East 8.1 mph - N/A   Clear
1:53 PM 77.0 °F 42.8 °F 29% 30.26 in 10.0 mi ESE 3.5 mph - N/A   Clear
3:53 PM 80.1 °F 44.1 °F 28% 30.23 in 10.0 mi NE 3.5 mph - N/A   Clear
4:53 PM 80.1 °F 46.0 °F 30% 30.21 in 10.0 mi NNW 3.5 mph - N/A   Clear
5:53 PM 78.1 °F 46.0 °F 32% 30.20 in 10.0 mi Calm Calm - N/A   Clear
6:53 PM 77.0 °F 48.2 °F 36% 30.20 in 10.0 mi West 3.5 mph - N/A   Clear
7:53 PM 71.1 °F 53.1 °F 53% 30.21 in 10.0 mi Calm Calm - N/A   Clear
8:53 PM 68.0 °F 53.1 °F 59% 30.22 in 10.0 mi South 4.6 mph - N/A   Clear
9:53 PM 64.9 °F 55.9 °F 73% 30.22 in 10.0 mi Calm Calm - N/A   Clear
10:53 PM 64.9 °F 53.1 °F 65% 30.23 in 10.0 mi SW 5.8 mph - N/A   Clear
11:53 PM 63.0 °F 54.0 °F 72% 30.22 in 10.0 mi SSW 5.8 mph - N/A   Clear